Fort Lauderdale, FL

12:21 PM EST on February 08, 2016 (GMT -0500)
Fort Lauderdale Executive

Weather History for KFXE - March, 2014

Change the Weather History Date:

Tuesday, March 25, 2014

  Actual Average Record
Temperature  
Mean Temperature 74 °F -  
Max Temperature 84 °F 81 °F 92 °F (1975)
Min Temperature 64 °F 64 °F 48 °F (1950)
Cooling Degree Days 9    
Growing Degree Days 24 (Base 50)    
Moisture  
Dew Point 64 °F    
Average Humidity 79    
Maximum Humidity 93    
Minimum Humidity 56    
Precipitation  
Precipitation 0.27 in - - ()
Sea Level Pressure  
Sea Level Pressure 29.92 in    
Wind  
Wind Speed 8 mph (West)    
Max Wind Speed 17 mph    
Max Gust Speed 26 mph    
Visibility 10 miles    
Events Rain    
Averages and records for this station are not official NWS values.
T = Trace of Precipitation, MM = Missing Value Source: NWS Daily Summary

Daily Weather History Graph

Daily Weather History Graph

Search for Another Location

Airport or City:

Trip Planner

Search our weather history database for the weather conditions in past years. The results will help you decide how hot, cold, wet, or windy it might be!

Date:

Astronomy

Mar. 25, 2014 Rise Set
Actual Time 7:19 AM EDT 7:34 PM EDT
Civil Twilight 6:56 AM EDT 7:57 PM EDT
Nautical Twilight 6:29 AM EDT 8:24 PM EDT
Astronomical Twilight 6:02 AM EDT 8:51 PM EDT
Moon 3:11 AM EDT (3/25) 2:30 PM EDT (3/25)
Length of Visible Light 13h 01m
Length of Day
12h 15m
Waning Crescent, 32% of the Moon is Illuminated
Mar 25
Waning Crescent
Mar 30
New
Apr 7
First Quarter
Apr 15
Full
Apr 22
Last Quarter

Hourly Weather History & Observations

Time (EDT) Temp. Heat Index Dew Point Humidity Pressure Visibility Wind Dir Wind Speed Gust Speed Precip Events Conditions
12:53 AM 66.0 °F - 64.0 °F 93% 30.00 in 5.0 mi NNW 5.8 mph - 0.13 in Rain Rain
1:53 AM 66.0 °F - 64.0 °F 93% 29.98 in 10.0 mi SW 5.8 mph - 0.09 in Rain Light Rain
2:53 AM 66.0 °F - 64.0 °F 93% 29.93 in 10.0 mi South 4.6 mph - 0.01 in   Scattered Clouds
3:53 AM 66.0 °F - 64.0 °F 93% 29.90 in 10.0 mi Calm Calm - 0.00 in Rain Light Rain
4:53 AM 66.9 °F - 64.9 °F 93% 29.89 in 10.0 mi Calm Calm - 0.01 in   Mostly Cloudy
5:53 AM 66.9 °F - 64.9 °F 93% 29.92 in 10.0 mi SW 5.8 mph - 0.01 in Rain Light Rain
6:53 AM 66.9 °F - 64.9 °F 93% 29.94 in 10.0 mi WSW 4.6 mph - 0.01 in Rain Light Rain
7:53 AM 66.9 °F - 64.9 °F 93% 29.91 in 10.0 mi South 10.4 mph - 0.00 in   Mostly Cloudy
8:53 AM 68.0 °F - 64.9 °F 90% 29.91 in 10.0 mi South 9.2 mph - 0.01 in   Mostly Cloudy
9:53 AM 70.0 °F - 64.9 °F 84% 29.93 in 10.0 mi SSW 9.2 mph - 0.00 in Rain Light Rain
10:53 AM 72.0 °F - 66.9 °F 84% 29.95 in 10.0 mi SW 12.7 mph - 0.00 in   Scattered Clouds
11:53 AM 75.9 °F - 66.0 °F 71% 29.93 in 10.0 mi SW 12.7 mph - N/A   Mostly Cloudy
12:53 PM 77.0 °F - 66.0 °F 69% 29.91 in 10.0 mi WSW 15.0 mph - N/A   Scattered Clouds
1:53 PM 79.0 °F - 66.0 °F 64% 29.88 in 10.0 mi WSW 15.0 mph - N/A   Scattered Clouds
2:53 PM 82.0 °F 83.8 °F 64.9 °F 56% 29.85 in 10.0 mi WSW 17.3 mph 23.0 mph N/A   Scattered Clouds
3:53 PM 78.1 °F - 66.0 °F 66% 29.84 in 10.0 mi WNW 9.2 mph - N/A   Mostly Cloudy
4:48 PM 73.4 °F - 66.2 °F 78% 29.86 in 10.0 mi NW 11.5 mph 26.5 mph 0.00 in Rain Light Rain
4:53 PM 73.0 °F - 68.0 °F 84% 29.86 in 10.0 mi NNW 12.7 mph 19.6 mph 0.00 in Rain Light Rain
5:53 PM 77.0 °F - 68.0 °F 74% 29.87 in 10.0 mi WNW 8.1 mph - 0.00 in   Scattered Clouds
6:53 PM 77.0 °F - 64.9 °F 66% 29.89 in 10.0 mi WNW 10.4 mph - N/A   Clear
7:53 PM 75.0 °F - 66.0 °F 73% 29.91 in 10.0 mi West 10.4 mph - N/A   Partly Cloudy
8:53 PM 72.0 °F - 62.1 °F 71% 29.95 in 10.0 mi WNW 12.7 mph 21.9 mph N/A   Partly Cloudy
9:53 PM 69.1 °F - 60.1 °F 73% 29.97 in 10.0 mi West 11.5 mph - N/A   Clear
10:53 PM 66.9 °F - 51.1 °F 57% 30.00 in 10.0 mi WNW 10.4 mph - N/A   Clear
11:53 PM 64.0 °F - 53.1 °F 67% 30.03 in 10.0 mi WNW 11.5 mph 19.6 mph N/A   Clear